Terminal Aerodrome Forecast
Issued by NWS Charleston, WV

Current Version | Previous Version | Text Only | Print | Product List | Glossary Off
Versions: 1 2 3 4 5 6 7 8 9 10 11 12 13 14 15 16 17 18 19 20 21 22 23 24 25

402
FTUS41 KRLX 180902 AAA
TAFPKB
TAF AMD
KPKB 180902Z 1809/1906 27007KT P6SM OVC025
     FM181000 26006KT 6SM -RADZ OVC015
     FM181400 28009G15KT P6SM OVC015
     FM182000 27006KT P6SM BKN015=

USA.gov is the U.S. government's official web portal to all federal, state and local government web resources and services.